Content
SEND FEEDBACK

Daily
Averages
Monthly
Summary
Mexico

CANCUN, QUINTANA ROO


Home > North America > Mexico > Quintana Roo
Elevation: 9 meters     Latitude: 21 09N     Longitude: 086 49W

WEATHER
 
SELECT A DAY
Number of Records: 163,723;   Date Range: 1/1/95 - 7/28/14
 
SHARE

PRINT THIS DATA

[ ← Previous Day ]
WEATHER ALMANAC - 24 FEBRUARY, 2013
[ Next Day → ]
[ °F ]   °C
Weather ElementAverageHighLow
Temperature26.4 °C29 °C (10:42 am)23 °C (4:42 am)
Dewpoint21.2 °C22 °C (6:48 am)21 °C (1:40 am)
Humidity73.4 %88 % (4:42 am)62 % (11:48 am)
Barometer1012.2 hPa1014.2 hPa (9:54 am)1010.2 hPa (3:46 pm)
Wind Speed21.2 km/h35.2 km/h (1:46 pm)
Weather ElementAverage
Visibility11.3 km
Wind DirectionSSE (140.9 °)

Weather ElementTotal
Precipitation---
Cooling Degree Days7.7 (Base 18.3)
Growing Degree Days16 (Base 10)
Averaged from 23 records on 24 February, 2013
WEATHER CONDITIONS BREAKOUT
WIND DIRECTION BREAKOUT
WEATHER BY HOUR - 24 FEBRUARY, 2013
[ °F ]   °C
Local TimeTemperatureDewpointHumidityBarometerVisibilityWind DirectionWind SpeedGust SpeedPrecipitationEventsConditions
1:40 AM25 °C21 °C78 %1012.5 hPa11.3 kmSE (140°)16.7 km/hScattered Clouds
2:49 AM24 °C21 °C83 %1012.5 hPa11.3 kmSE (130°)9.3 km/hScattered Clouds
3:46 AM24 °C21 °C83 %1011.9 hPa11.3 kmESE (120°)7.4 km/hScattered Clouds
4:42 AM23 °C21 °C88 %1012.2 hPa11.3 kmESE (110°)5.6 km/hScattered Clouds
5:41 AM23 °C21 °C88 %1012.2 hPa11.3 kmSE (130°)9.3 km/hScattered Clouds
6:48 AM25 °C22 °C83 %1012.9 hPa11.3 kmSE (140°)16.7 km/hScattered Clouds
7:44 AM27 °C21 °C70 %1013.2 hPa11.3 kmSE (140°)22.2 km/hPartly Cloudy
8:46 AM28 °C22 °C70 %1013.9 hPa11.3 kmSSE (150°)29.6 km/hScattered Clouds
9:54 AM28 °C22 °C70 %1014.2 hPa11.3 kmSSE (150°)27.8 km/hScattered Clouds
10:42 AM29 °C22 °C66 %1013.9 hPa11.3 kmSSE (150°)25.9 km/hScattered Clouds
11:48 AM29 °C21 °C62 %1013.5 hPa11.3 kmSE (140°)31.5 km/hScattered Clouds
12:50 PM29 °C21 °C62 %1011.9 hPa11.3 kmSE (140°)29.6 km/hMostly Cloudy
1:46 PM28 °C21 °C66 %1012.2 hPa11.3 kmSE (140°)35.2 km/hScattered Clouds
2:47 PM29 °C21 °C62 %1011.2 hPa11.3 kmSSE (150°)25.9 km/hPartly Cloudy
3:46 PM28 °C21 °C66 %1010.2 hPa11.3 kmSSE (150°)29.6 km/hScattered Clouds
4:42 PM28 °C21 °C66 %1010.8 hPa11.3 kmSSE (160°)22.2 km/hScattered Clouds
5:51 PM26 °C21 °C74 %1011.2 hPa11.3 kmSSE (150°)11.1 km/hClear
6:42 PM25 °C21 °C78 %1011.9 hPa11.3 kmSE (140°)9.3 km/hClear
7:41 PM25 °C21 °C78 %1011.5 hPa11.3 kmSE (140°)22.2 km/hClear
8:42 PM26 °C21 °C74 %1011.5 hPa11.3 kmSE (140°)25.9 km/hPartly Cloudy
9:48 PM26 °C21 °C74 %1011.9 hPa11.3 kmSE (140°)31.5 km/hPartly Cloudy
10:47 PM26 °C21 °C74 %1011.5 hPa11.3 kmSSE (150°)18.5 km/hClear
11:46 PM26 °C21 °C74 %1010.5 hPa11.3 kmSE (140°)24.1 km/hClear
Hourly data recorded from MMUN, located 0 kilometers away from Cancun, Quintana Roo







STORIES FROM OUR PARTNERS